Weather observations for the past three days for
Clinton, Clinton-Sherman Airport
Imperial (Metric)
Date Time (cdt) Wind (mph) Vis. (mi.) Weather Sky Cond. Temperature (ºF) Relative Humidity Wind Chill (°F) Heat Index (°F) Pressure Precipitation (in)
Air Dwpt 6 hour altimeter (in) sea level (mb) 1 hr 3 hr 6 hr
Max. Min.
05 00:53 S 16 10.00 Fair CLR 84.9 63 99 84.9 48% 86 29.95 1011.0
04 23:53 S 17 10.00 Fair CLR 87.1 63 45% 88 29.95 1011.1
04 22:53 SE 18 10.00 Fair CLR 89.1 63 42% 90 29.95 1011.1
04 21:53 SE 20 10.00 Fair CLR 91 64 41% 93 29.93 1010.4
04 20:53 SE 12 10.00 Fair CLR 91.9 62.1 37% 93 29.89 1009.1
04 19:53 SE 12 10.00 Fair CLR 96.1 62.1 32% 97 29.88 1008.6
04 18:53 SE 13 10.00 Fair CLR 99 61 100.9 93 29% 100 29.86 1008.3
04 17:53 SE 9 10.00 Fair CLR 100 62.1 29% 102 29.86 1008.2
04 16:53 SE 13 G 22 10.00 Fair CLR 100 63 30% 102 29.87 1008.3
04 15:53 SE 15 G 25 10.00 Fair CLR 100 64.9 32% 103 29.89 1009.0
04 14:53 S 15 G 22 10.00 Fair CLR 98.1 66 35% 102 29.91 1009.7
04 13:53 S 10 G 18 10.00 Fair CLR 95 66.9 40% 99 29.92 1010.2
04 12:53 SE 10 G 24 10.00 Fair CLR 93.9 68 95 73.9 43% 98 29.94 1010.8
04 11:53 S 12 G 22 10.00 Fair CLR 90 68 48% 94 29.96 1011.4
04 10:53 S 16 10.00 Fair CLR 86 69.1 57% 90 29.96 1011.4
04 08:53 S 16 10.00 Fair CLR 78.1 69.1 74% 80 29.95 1011.4
04 07:53 S 16 10.00 Fair CLR 75 69.1 82% 75 29.93 1010.7
04 06:53 S 13 10.00 Fair CLR 73.9 68 81 73.9 82% 29.92 1010.2
04 05:53 SE 13 10.00 Fair CLR 75.9 68 77% 77 29.92 1010.1
04 04:53 S 15 10.00 Fair CLR 77 69.1 77% 79 29.91 1009.9
04 03:53 S 12 10.00 Fair CLR 78.1 69.1 74% 80 29.91 1009.8
04 02:53 S 17 10.00 Fair CLR 79 70 74% 82 29.92 1009.9
04 01:53 S 17 10.00 Fair CLR 80.1 70 71% 83 29.93 1010.3
04 00:53 S 18 10.00 Fair CLR 81 70 98.1 81 69% 84 29.92 1010.0
03 23:53 SE 21 10.00 Fair and Breezy CLR 82.9 70 65% 87 29.92 1009.9
03 22:53 SE 17 10.00 Fair CLR 84.9 68 57% 88 29.91 1009.9
03 21:53 SE 16 10.00 Fair CLR 88 64.9 46% 90 29.9 1009.6
03 20:53 SE 17 10.00 Fair CLR 91 64 41% 93 29.88 1009.0
03 19:53 SE 16 G 26 10.00 Fair CLR 93.9 64 37% 96 29.86 1008.1
03 18:53 SE 15 10.00 Fair CLR 98.1 62.1 102 95 31% 99 29.84 1007.4
03 17:53 SE 15 10.00 Fair CLR 100 63 30% 102 29.83 1007.0
03 16:53 SE 16 G 25 10.00 Fair CLR 100.9 62.1 28% 103 29.84 1007.2
03 15:53 SE 10 G 20 10.00 Fair CLR 100 61 28% 101 29.86 1007.9
03 14:53 S 12 G 20 10.00 Fair CLR 100 63 30% 102 29.88 1008.7
03 13:53 Vrbl 7 10.00 Fair CLR 97 63 33% 99 29.91 1009.5
03 12:53 S 13 10.00 Fair CLR 96.1 64.9 96.1 75.9 36% 99 29.93 1010.3
03 10:53 SE 15 10.00 Fair CLR 89.1 66 47% 92 29.95 1011.1
03 09:53 S 17 10.00 Fair CLR 84.9 66 53% 87 29.96 1011.4
03 08:53 SE 17 10.00 Fair CLR 81 66.9 62% 83 29.96 1011.6
03 07:53 S 15 10.00 Fair CLR 77 66.9 71% 79 29.96 1011.4
03 06:53 S 15 10.00 Fair CLR 77 66 84.9 77 69% 79 29.95 1011.2
03 05:53 S 15 10.00 Fair CLR 78.1 64.9 64% 80 29.95 1011.1
03 04:53 S 16 10.00 Fair CLR 79 64.9 62% 81 29.95 1011.0
03 03:53 S 15 10.00 Fair CLR 80.1 64.9 60% 82 29.95 1011.1
03 02:53 S 18 10.00 Fair CLR 82 64.9 56% 84 29.95 1011.1
03 01:53 SE 17 10.00 Fair CLR 84 63 49% 85 29.95 1010.8
03 00:53 S 22 10.00 Fair and Breezy CLR 84.9 63 99 84.9 48% 86 29.94 1010.7
02 23:53 SE 16 10.00 Fair CLR 86 62.1 45% 87 29.94 1010.5
02 22:53 SE 17 10.00 Fair CLR 88 60.1 39% 88 29.94 1010.5
02 21:53 SE 12 10.00 Fair CLR 88 57.9 36% 87 29.93 1010.4
02 20:53 SE 10 10.00 Fair CLR 90 55.9 32% 88 29.91 1009.9
02 19:53 S 12 10.00 Fair CLR 93.9 55.9 28% 92 29.9 1009.5
02 18:53 S 10 10.00 Fair CLR 99 55 100.9 97 23% 97 29.9 1009.4
02 17:53 SE 14 G 18 10.00 A Few Clouds FEW100 100 55 22% 98 29.9 1009.4
02 16:53 SE 9 10.00 Fair CLR 100.9 55 22% 99 29.91 1009.5
02 15:53 S 14 G 21 10.00 A Few Clouds FEW100 100 57 24% 99 29.93 1010.4
02 14:53 S 15 G 24 10.00 Partly Cloudy SCT090 100 57 24% 99 29.96 1011.3
02 13:53 SW 9 10.00 Fair CLR 99 57.9 26% 98 29.98 1012.1
02 12:53 S 16 G 24 10.00 Fair CLR 98.1 60.1 98.1 78.1 28% 98 30.01 1013.0
02 11:53 S 17 G 24 10.00 Fair CLR 95 63 35% 96 30.02 1013.5
02 10:53 S 16 G 24 10.00 Fair CLR 91 63 39% 92 30.03 1013.8
02 09:53 S 16 10.00 Fair CLR 87.1 64 46% 88 30.03 1014.0
02 08:53 S 13 10.00 Fair CLR 82.9 63 51% 84 30.04 1014.4
02 07:53 S 12 10.00 Fair CLR 78.1 63 60% 80 30.03 1014.0
02 06:53 S 12 10.00 Fair CLR 78.1 62.1 84 78.1 58% 80 30.01 1013.4
02 05:53 S 13 10.00 A Few Clouds FEW110 78.1 62.1 58% 80 30.02 1013.3
02 04:53 S 12 10.00 Fair CLR 78.1 61 56% 80 30.01 1013.1
02 03:53 S 14 10.00 Fair CLR 80.1 61 52% 81 30.01 1013.0
02 02:53 S 13 10.00 Fair CLR 81 60.1 49% 82 30.01 1012.9
02 01:53 S 16 10.00 Fair CLR 82.9 60.1 46% 83 30 1012.8
Date Time (cdt) Wind (mph) Vis. (mi.) Weather Sky Cond. Air Dwpt Max. Min. Relative Humidity Wind Chill (°F) Heat Index (°F) altimeter (in) sea level (mb) 1 hr 3 hr 6 hr
6 hour
Temperature (ºF) Pressure Precipitation (in)